TimeAST,TemperatureF,Dew PointF,Humidity,Sea Level PressureIn,VisibilityMPH,Wind Direction,Wind SpeedMPH,Gust SpeedMPH,PrecipitationIn,Events,Conditions,WindDirDegrees,DateUTC
12:00 AM,84.2,77.0,79,29.86,-9999.0,North,-9999.0,-,N/A,,Unknown,0,2011-11-06 04:00:00
1:00 AM,82.4,75.2,79,29.83,-9999.0,North,-9999.0,-,N/A,,Unknown,0,2011-11-06 05:00:00
2:00 AM,82,78,83,,,Calm,Calm,,,,Clear,,2011-11-06 06:00:00
2:00 AM,82.4,77.0,84,29.80,-9999.0,North,-9999.0,-,N/A,,Unknown,0,2011-11-06 06:00:00
3:00 AM,80.6,77.0,89,29.80,-9999.0,North,-9999.0,-,N/A,,Unknown,0,2011-11-06 07:00:00
4:00 AM,80.6,77.0,89,29.80,-9999.0,North,-9999.0,-,N/A,,Unknown,0,2011-11-06 08:00:00
5:00 AM,80,77,87,,,Calm,Calm,,,,Clear,10,2011-11-06 09:00:00
5:00 AM,80.6,77.0,89,29.80,-9999.0,North,-9999.0,-,N/A,,Unknown,0,2011-11-06 09:00:00
6:00 AM,80.6,77.0,89,29.83,-9999.0,North,-9999.0,-,N/A,,Unknown,0,2011-11-06 10:00:00
7:00 AM,80.6,77.0,89,29.83,-9999.0,North,-9999.0,-,N/A,,Unknown,0,2011-11-06 11:00:00
8:00 AM,84,78,78,,,Calm,Calm,,,,Clear,,2011-11-06 12:00:00
8:00 AM,84.2,78.8,84,29.86,-9999.0,North,-9999.0,-,N/A,,Unknown,0,2011-11-06 12:00:00
9:00 AM,86.0,78.8,79,29.89,6.2,ESE,9.2,-,N/A,,Scattered Clouds,110,2011-11-06 13:00:00
10:00 AM,87.8,77.0,70,29.89,6.2,East,11.5,-,N/A,,Scattered Clouds,100,2011-11-06 14:00:00
11:00 AM,88,76,61,29.91,22,East,10.4,,,,Partly Cloudy,100,2011-11-06 15:00:00
11:00 AM,87.8,77.0,70,29.89,6.2,East,10.4,-,N/A,,Scattered Clouds,100,2011-11-06 15:00:00
12:00 PM,89.6,77.0,66,29.86,6.2,East,11.5,-,N/A,,Scattered Clouds,100,2011-11-06 16:00:00
1:00 PM,89.6,77.0,66,29.83,6.2,East,12.7,-,N/A,,Scattered Clouds,100,2011-11-06 17:00:00
2:00 PM,88,78,65,29.83,22,ESE,11.5,,,,Partly Cloudy,110,2011-11-06 18:00:00
2:00 PM,87.8,77.0,70,29.80,6.2,ESE,11.5,-,N/A,,Scattered Clouds,110,2011-11-06 18:00:00
3:00 PM,89.6,77.0,66,29.80,-9999.0,North,-9999.0,-,N/A,,Unknown,0,2011-11-06 19:00:00
4:00 PM,87.8,77.0,70,29.77,-9999.0,North,-9999.0,-,N/A,,Unknown,0,2011-11-06 20:00:00
5:00 PM,86,77,68,29.80,22,East,10.4,,,,Partly Cloudy,80,2011-11-06 21:00:00
5:00 PM,86.0,77.0,74,29.77,-9999.0,North,-9999.0,-,N/A,,Unknown,0,2011-11-06 21:00:00
6:00 PM,84.2,77.0,79,29.77,-9999.0,North,-9999.0,-,N/A,,Unknown,0,2011-11-06 22:00:00
7:00 PM,84.2,77.0,79,29.80,-9999.0,North,-9999.0,-,N/A,,Unknown,0,2011-11-06 23:00:00
8:00 PM,83,77,78,29.84,16,East,9.2,,,,Scattered Clouds,90,2011-11-07 00:00:00
8:00 PM,82.4,77.0,84,29.83,6.2,East,9.2,-,N/A,,Partly Cloudy,90,2011-11-07 00:00:00
9:00 PM,82.4,77.0,84,29.83,-9999.0,North,-9999.0,-,N/A,,Unknown,0,2011-11-07 01:00:00
10:00 PM,82.4,77.0,84,29.86,-9999.0,North,-9999.0,-,N/A,,Unknown,0,2011-11-07 02:00:00
11:00 PM,83,76,75,,16,Calm,Calm,,,,Clear,10,2011-11-07 03:00:00
11:00 PM,82.4,77.0,84,29.86,6.2,North,-9999.0,-,N/A,,Partly Cloudy,0,2011-11-07 03:00:00